Home   Weather   Kielce   Past weeks

Flag for Poland Past Weather in Kielce, Poland — Yesterday and Last 2 Weeks

Now
45 °F

Overcast.


Feels Like: 42 °F
Forecast: 35 / 48 °F
Wind: 5 mph from Northwest

Location: Kielce

Current Time: Apr 23, 2017 at 6:09:30 pm

Latest Report: Apr 23, 2017 at 5:00 pm


Visibility: 6 mi

Pressure: 29.99 "Hg

Humidity: 47%

Dew Point: 26 °F

Location of KielceLocation

Past Weather in Kielce — Graph

°F

Kielce Temperature Yesterday

Maximum temperature yesterday: 49 °F (at 2:00 pm)
Minimum temperature yesterday: 38 °F (at 10:00 pm)
Average temperature yesterday: 45 °F

High & Low Weather Summary for the Past Weeks

 TemperatureHumidityPressure
High66 °F (Apr 10, 5:00 pm)100% (Apr 9, 3:00 am)30.44 "Hg (Apr 9, 3:00 am)
Low24 °F (Apr 21, 5:00 am)43% (Apr 10, 4:00 pm)29.68 "Hg (Apr 13, 5:00 am)
Average42 °F72%30.04 "Hg
* Reported Apr 8 4:00 pm — Apr 23 4:00 pm, Kielce, Weather by CustomWeather, © 2017

Note: Actual official high and low records may vary slightly from our data, if they occured in-between our weather recording intervals... More about our weather records

Advertising

Kielce Weather History for the Previous 24 Hours

Scroll right to see more
 ConditionsComfort  
Time TempWeatherWind HumidityBarometerVisibility
4:00 pm
Sun, Apr 23
43 °FOvercast.8 mph53%29.99 "Hg19 mi
3:00 pm44 °FScattered clouds.5 mph56%29.98 "Hg6 mi
2:00 pm44 °FScattered clouds.5 mph49%29.98 "Hg19 mi
1:00 pm46 °FSprinkles. Overcast.8 mph44%29.96 "Hg22 mi
12:00 pm45 °FScattered clouds.7 mph51%29.97 "Hg9 mi
11:00 am45 °FPartly sunny.6 mph61%29.97 "Hg22 mi
10:00 am41 °FPartly sunny.6 mph69%29.98 "Hg22 mi
9:00 am40 °FOvercast.7 mph71%29.96 "Hg19 mi
8:00 am38 °FOvercast.5 mph87%29.96 "Hg10 mi
7:00 am37 °FSprinkles. Overcast.3 mph87%29.95 "Hg9 mi
6:00 am36 °FOvercast.3 mph90%29.93 "Hg10 mi
5:00 am36 °FOvercast.2 mph89%29.92 "Hg13 mi
4:00 am35 °FLight mixture of precip. Overcast.2 mph87%29.92 "Hg8 mi
3:00 am34 °FPassing clouds.2 mph84%29.93 "Hg9 mi
2:00 am34 °FPassing clouds.3 mph84%29.93 "Hg12 mi
1:00 am35 °FPassing clouds.3 mph83%29.94 "Hg17 mi
12:00 am38 °FOvercast.5 mph77%29.93 "Hg19 mi
11:00 pm
Sat, Apr 22
38 °FOvercast.3 mph72%29.94 "Hg17 mi
10:00 pm38 °FPassing clouds.2 mph69%29.95 "Hg9 mi
9:00 pm39 °FOvercast.2 mph64%29.94 "Hg9 mi
8:00 pm41 °FOvercast.3 mph55%29.93 "Hg14 mi
7:00 pm43 °FOvercast.5 mph54%29.92 "Hg16 mi
6:00 pm45 °FOvercast.7 mph48%29.91 "Hg18 mi
Weather by CustomWeather, © 2017

See weather overviewHow to use our weather pages